CZ-6A DEB, 54404

Orbit data source: Space-Track

CZ-6A DEB, 54404 is space debris in SSO originally from a launch on Fri, 11 Nov 2022 UTC launched from the Taiyaun Space Center, China (TSC). Debris objects in space refer to the collection of defunct objects orbiting the Earth. Examples of debris include non-operational satellites, rocket bodies, and fragments generated from explosions, collisions, or faulty payload assembly.

Loading next visibility...
Identifier
54404, 2022-151EC
Orbit
SSO
Country
Flag of CNCN / PRC
Related business
Manufacturer
SAST
Mission
Spacecraft
Bus & Motor
Unknown
Mass
Unknown
Launch date (UTC)
2022-11-11 (4 years ago)
Launch vehicle
Unknown
Launch site
Taiyaun Space Center, China (TSC)
Object type
Payload
Rocket body
Debris
Shape & HBR
Unknown shape, 0.4 m
Radar Cross Section
Medium (>0.1 m² and <1 m²)

Expand to show TLE details & history
Last TLE update: 13 hours ago

TLE from 13 hours ago
0 CZ-6A DEB
1 54404U 22151EC  26263.02881624  .00000523  00000-0  24478-3 0  9996
2 54404  98.7553 281.8126 0055941  71.1686 289.5548 14.23656056199780
Epoch: 2026-09-20T00:41Z
TLE epoch observation values (Epoch: 2026-09-20T00:41:29.723Z)
Latitude
-0.00004°
Longitude
-87.49011°
Altitude
802.666 km
Speed
7.459 km/s
True Right ascension
18h 47m 15s
True Declination
0° 00' 00"
Sunlit
Object was in daylight at epoch
Visualization orbit readout
Latitude
Unknown
Longitude
Unknown
Altitude
Unknown
Speed
Unknown
Apparent Right ascension
Unknown
Apparent Declination
Unknown
Sunlit
N/A
Visualization observer readout
Local Sidereal Time
06:58:45
Azimuth
Unknown
Elevation
Unknown
Doppler factor
Unknown
Orbital elements
Apogee altitude
850.383 km
Perigee altitude
769.958 km
Semi-major axis
7,188.308 km
Eccentricity
0.00559
Inclination
98.7553°
RAAN
281.8126°
Arg. of periapsis
71.1686°
True anomaly
288.94933°
Mean anomaly
289.5548°
Eccentric anomaly
289.25221°
Mean motion
3.56126 °/min
Orbital period
101.09 mins
BSTAR
0.00024478
Loading maneuver chart data...
Computing Atmospheric mass density...
Loading historical data...
Loading historical data...
Loading historical data...
Loading historical data...
Loading historical data...
Loading historical data...
Loading historical data...

Documentation

Showing up to 5 results
|